Olympia, WA
on Tuesday, January 29, 2013

Tuesday
Previous Day Next Day
Daily Summary
 ActualAverageRecord
Temperature
Mean Temperature °F 40°F  
Max Temperature 49°F 47°F 57°F (1960)
Min Temperature 43°F 34°F 0°F (1972)
Degree Days
Heating Degree Days 19 25  
Month to date heating degree days 838 735  
Since 1 July heating degree days 3001 3005  
Cooling Degree Days 0 0  
Month to date cooling degree days 0 0  
Year to date cooling degree days 0 0  
Moisture
Dew Point 42°F   
Average Humidity 87    
Maximum Humidity 93    
Minimum Humidity 80    
Precipitation
Precipitation 0.01 in 0.23 in 2.23 in (2006)
Month to date precipitation 3.58 7.37  
Year to date precipitation 3.58 7.37  
Wind
Wind Speed 10 mph   
Max Wind Speed 17 mph   
Max Gust Speed 23 mph   
Visibility 10 miles   
Events Rain   

Key: T is trace of precipitation, MM is missing value
Source: NWS Daily Summary
Time(PST)TemperatureDew PointHumidity Pressure Visibility Wind DirectionWind SpeedGust SpeedPrecipitationEvents Conditions
12:05 AM 43.0°F 39.9°F 89% 30.12 in 10.0 miles WSW 13.8 mph - N/A   Overcast
12:54 AM 44.1°F 39.9°F 85% 30.13 in 10.0 miles SW 12.7 mph 19.6 mph N/A   Overcast
1:23 AM 44.1°F 41.0°F 89% 30.13 in 10.0 miles SW 10.4 mph - N/A   Overcast
1:54 AM 45.0°F 41.0°F 86% 30.14 in 10.0 miles SW 11.5 mph - N/A   Overcast
2:22 AM 45.0°F 41.0°F 86% 30.14 in 10.0 miles SW 15.0 mph 19.6 mph N/A   Overcast
2:54 AM 45.0°F 41.0°F 86% 30.16 in 10.0 miles SW 9.2 mph - N/A   Overcast
3:11 AM 45.0°F 41.0°F 86% 30.15 in 10.0 miles WSW 12.7 mph - N/A   Overcast
3:54 AM 45.0°F 42.1°F 90% 30.17 in 10.0 miles SW 15.0 mph 19.6 mph N/A   Overcast
4:54 AM 45.0°F 42.1°F 90% 30.17 in 10.0 miles SW 10.4 mph 21.9 mph N/A   Overcast
5:54 AM 46.0°F 41.0°F 83% 30.19 in 10.0 miles WSW 9.2 mph - N/A   Overcast
6:54 AM 46.0°F 42.1°F 86% 30.21 in 10.0 miles WSW 8.1 mph - N/A   Overcast
7:06 AM 46.0°F 41.0°F 83% 30.21 in 10.0 miles WSW 10.4 mph - N/A   Overcast
7:13 AM 46.0°F 41.0°F 83% 30.21 in 10.0 miles WSW 8.1 mph - N/A   Overcast
7:49 AM 46.4°F 41.0°F 81% 30.23 in 10.0 miles SW 8.1 mph - N/A   Overcast
7:54 AM 46.0°F 41.0°F 83% 30.23 in 10.0 miles WSW 8.1 mph - N/A   Overcast
8:54 AM 46.9°F 41.0°F 80% 30.27 in 10.0 miles WSW 4.6 mph - N/A   Overcast
9:54 AM 46.9°F 43.0°F 86% 30.28 in 10.0 miles SSW 5.8 mph - N/A   Mostly Cloudy
10:54 AM 48.0°F 42.1°F 80% 30.31 in 10.0 miles WSW 6.9 mph - N/A   Overcast
11:54 AM 48.0°F 43.0°F 83% 30.33 in 10.0 miles SW 9.2 mph - N/A   Overcast
12:54 PM 48.0°F 43.0°F 83% 30.33 in 10.0 miles WSW 8.1 mph - N/A   Overcast
1:54 PM 48.0°F 43.0°F 83% 30.33 in 10.0 miles SW 12.7 mph - N/A   Overcast
2:54 PM 48.0°F 43.0°F 83% 30.34 in 10.0 miles SW 12.7 mph - N/A   Overcast
3:54 PM 46.9°F 43.0°F 86% 30.36 in 10.0 miles SW 11.5 mph - N/A   Overcast
4:54 PM 46.9°F 43.0°F 86% 30.37 in 10.0 miles SSW 10.4 mph - N/A   Overcast
5:54 PM 46.0°F 44.1°F 93% 30.39 in 10.0 miles SSW 9.2 mph - N/A   Overcast
6:25 PM 46.0°F 44.1°F 93% 30.38 in 10.0 miles South 6.9 mph - N/A   Overcast
6:54 PM 46.0°F 43.0°F 89% 30.39 in 10.0 miles SSW 8.1 mph - N/A   Overcast
7:54 PM 46.0°F 42.1°F 86% 30.39 in 10.0 miles SW 12.7 mph 18.4 mph N/A   Overcast
8:54 PM 45.0°F 41.0°F 86% 30.40 in 10.0 miles SW 12.7 mph - 0.00 in   Overcast
9:54 PM 44.1°F 41.0°F 89% 30.38 in 10.0 miles SSW 5.8 mph - 0.00 in   Overcast
10:07 PM 44.1°F 42.1°F 93% 30.36 in 10.0 miles SSW 9.2 mph - N/A   Overcast
10:23 PM 45.0°F 41.0°F 86% 30.36 in 10.0 miles SSW 8.1 mph - N/A   Overcast
10:54 PM 44.1°F 42.1°F 93% 30.36 in 10.0 miles SSW 9.2 mph - N/A   Overcast
11:54 PM 44.1°F 43.0°F 96% 30.36 in 9.0 miles SSW 10.4 mph - 0.01 in Rain Light Rain
Moon Phase
Jan. 29 Feb. 03 Feb. 10 Feb. 17 Feb. 25
Sunrise:07:39 AM (PST) Moon Rise:08:28 PM (PST)1/29
Sunset:05:10 PM (PST) Moon Set:08:25 AM (PST)1/29

Copyright © 2014 The Weather Underground, Inc.